Location: Misciano
(43.5000°N, 11.9500°E)
Time: 09:11:47
(UTC+00:00)

USA 276 - Pass Details

Date: 13 August 2020
Orbit: 386 x 394 km, 50.0° (Epoch: 19 September)

Event Time Altitude Azimuth Distance (km) Brightness Sun altitude
Rises 20:42:18 0° 299° (WNW) 2,270 7.2 -22.2°
Reaches altitude 10° 20:44:25 10° 306° (NW) 1,414 6.0 -22.5°
Enters shadow 20:46:52 38° 346° (NNW) 603 3.4 -22.8°
